DW3590 Weather Reports


time (UTC)temp
F
wind
direction
speed
knots
gust
knots
rain 1hr
in
rain 24hr
in
rain mn
in
humidity
%
barometer
mb
20260507101548 53 90 0.9 2.6 0.00 0.00 0.00 81 1015.4
20260507100044 53 90 0.0 2.6 0.00 0.00 0.00 81 1015.4
20260507094545 53 61 0.0 2.6 0.00 0.00 0.00 80 1015.4
20260507093043 53 61 0.9 2.6 0.00 0.00 0.00 78 1015.3
20260507091539 55 61 0.0 0.0 0.00 0.00 0.00 79 1015.5
20260507090036 55 61 0.0 0.0 0.00 0.00 0.00 78 1015.7
20260507084535 55 61 0.0 0.0 0.00 0.00 0.00 77 1015.7
20260507083027 56 61 0.0 0.9 0.00 0.00 0.00 76 1015.9
20260507081526 56 61 0.0 1.7 0.00 0.00 0.00 76 1015.9
20260507080022 57 61 0.0 1.7 0.00 0.00 0.00 75 1016.0
20260507074520 57 65 0.0 0.9 0.00 0.00 0.00 76 1016.0
20260507073016 57 65 0.0 0.9 0.00 0.00 0.00 76 1016.0
20260507071513 57 65 0.9 1.7 0.00 0.00 0.00 74 1016.2
20260507070018 57 24 0.0 1.7 0.00 0.00 0.00 74 1016.3
20260507064512 57 24 1.7 3.5 0.00 0.00 0.00 72 1016.4
20260507063013 58 22 1.7 2.6 0.00 0.00 0.00 70 1016.6
20260507061510 59 36 0.9 2.6 0.00 0.00 0.00 70 1016.3
20260507060009 59 136 0.9 1.7 0.00 0.00 0.00 70 1016.4
20260507054508 59 136 0.0 5.2 0.00 0.00 0.00 69 1016.4
20260507053007 60 150 3.5 6.1 0.00 0.00 0.00 69 1016.5
20260507051507 61 142 1.7 4.3 0.00 0.00 0.00 67 1016.4
20260507050006 61 103 0.0 1.7 0.00 0.00 0.00 66 1016.4
20260507044513 61 163 3.5 7.0 0.00 0.00 0.00 67 1016.5
20260507043005 62 142 4.3 8.7 0.00 0.00 0.00 66 1016.3
20260507041505 62 150 5.2 9.6 0.00 0.00 0.00 66 1016.1
20260507040007 63 147 3.5 8.7 0.00 0.00 0.00 64 1016.0
20260507034504 64 132 6.1 9.6 0.00 0.00 0.00 63 1015.8
20260507033003 64 143 4.3 10.4 0.00 0.00 0.00 63 1015.5
20260507031502 65 146 4.3 7.8 0.00 0.00 0.00 62 1015.3
20260507030002 65 140 7.0 10.4 0.00 0.00 0.00 61 1015.0
20260507024501 66 158 7.0 12.2 0.00 0.00 0.00 60 1015.1
20260507023002 67 166 6.1 12.2 0.00 0.00 0.00 59 1015.1
20260507021600 69 161 9.6 13.0 0.00 0.00 0.00 57 1014.9
20260507020104 71 168 7.8 12.2 0.00 0.00 0.00 53 1014.7
20260507014559 74 167 3.5 5.2 0.00 0.00 0.00 48 1014.5
20260507013103 76 311 1.7 7.8 0.00 0.00 0.00 43 1014.4
20260507011559 76 335 2.6 9.6 0.00 0.00 0.00 42 1014.3
20260507010058 77 302 2.6 9.6 0.00 0.00 0.00 41 1014.2
20260507004600 77 284 4.3 12.2 0.00 0.00 0.00 40 1014.2
20260507003056 78 303 5.2 10.4 0.00 0.00 0.00 38 1014.2
20260507001557 78 11 5.2 13.0 0.00 0.00 0.00 38 1014.0
20260507000056 78 319 6.1 11.3 0.00 0.00 0.00 38 1013.7
20260506234556 79 303 3.5 9.6 0.00 0.00 0.00 36 1013.8
20260506233054 78 303 4.3 9.6 0.00 0.00 0.00 36 1014.0
20260506231553 79 311 5.2 13.0 0.00 0.00 0.00 35 1014.1
20260506230054 78 328 5.2 12.2 0.00 0.00 0.00 35 1014.2
20260506224602 80 32 3.5 8.7 0.00 0.00 0.00 34 1014.3
20260506223049 79 32 3.5 8.7 0.00 0.00 0.00 35 1014.5
20260506221547 79 304 1.7 8.7 0.00 0.00 0.00 34 1014.7
20260506220045 79 346 3.5 10.4 0.00 0.00 0.00 35 1014.9
20260506214558 78 319 6.1 10.4 0.00 0.00 0.00 35 1015.1
20260506213043 78 259 0.9 8.7 0.00 0.00 0.00 36 1015.2
20260506211538 78 346 1.7 7.0 0.00 0.00 0.00 36 1015.4
20260506210039 76 43 4.3 10.4 0.00 0.00 0.00 38 1015.6
20260506204533 76 17 5.2 11.3 0.00 0.00 0.00 38 1015.8
20260506203032 76 78 0.9 7.0 0.00 0.00 0.00 39 1015.9
20260506201526 76 215 0.9 8.7 0.00 0.00 0.00 39 1016.1
20260506200022 73 296 0.9 5.2 0.00 0.00 0.00 42 1016.5
20260506194519 73 271 3.5 7.8 0.00 0.00 0.00 42 1016.7
20260506193016 72 326 3.5 7.8 0.00 0.00 0.00 43 1016.8
20260506191512 71 325 0.9 5.2 0.00 0.00 0.00 45 1016.9
20260506190009 69 288 2.6 7.0 0.00 0.00 0.00 47 1017.2
20260506184507 69 296 2.6 7.0 0.00 0.00 0.00 47 1017.4
20260506183001 68 325 1.7 6.1 0.00 0.00 0.00 49 1017.6
20260506181600 67 243 0.9 6.1 0.00 0.00 0.00 51 1017.7
20260506180053 66 299 0.9 9.6 0.00 0.00 0.00 54 1017.9
20260506174549 66 314 4.3 7.8 0.00 0.00 0.00 52 1018.0
20260506173045 65 241 0.9 7.0 0.00 0.00 0.00 55 1017.9
20260506171551 63 32 1.7 7.8 0.00 0.00 0.00 58 1017.9
20260506170039 61 9 1.7 8.7 0.00 0.00 0.00 60 1017.9
20260506164533 61 348 1.7 5.2 0.00 0.00 0.00 59 1017.8
20260506163026 60 171 1.7 4.3 0.00 0.00 0.00 57 1017.8
20260506161522 59 175 1.7 6.1 0.00 0.00 0.00 60 1017.8
20260506160019 58 268 0.9 2.6 0.00 0.00 0.00 68 1017.9
20260506154513 57 73 0.0 2.6 0.00 0.00 0.00 75 1017.7
20260506153008 55 167 1.7 2.6 0.00 0.00 0.00 79 1017.8
20260506151504 53 232 1.7 3.5 0.00 0.00 0.00 85 1018.0
20260506150100 51 307 0.0 0.0 0.00 0.00 0.00 87 1017.7
20260506144602 50 312 0.0 2.6 0.00 0.00 0.00 88 1018.0
20260506143051 49 306 0.0 0.0 0.00 0.00 0.00 88 1017.8
20260506141548 48 93 0.0 0.0 0.00 0.00 0.00 88 1017.9
20260506140056 47 93 0.0 0.0 0.00 0.00 0.00 88 1017.8
20260506134542 46 93 0.0 0.0 0.00 0.00 0.00 88 1017.5
20260506133044 45 93 0.0 0.0 0.00 0.00 0.00 88 1017.3
20260506131535 45 93 0.0 0.0 0.00 0.00 0.00 88 1017.2
20260506130030 45 93 0.0 0.0 0.00 0.00 0.00 87 1017.1
20260506124527 46 93 0.0 0.0 0.00 0.00 0.00 87 1017.0
20260506123027 46 93 0.0 0.0 0.00 0.00 0.00 87 1016.9
20260506121525 46 111 0.0 0.9 0.00 0.00 0.00 87 1016.7
20260506120034 45 111 0.9 3.5 0.00 0.00 0.00 86 1016.8
20260506114520 46 76 0.0 0.0 0.00 0.01 0.00 86 1016.9
20260506113019 46 76 0.0 1.7 0.00 0.01 0.00 86 1016.9
20260506111517 46 76 0.0 2.6 0.00 0.01 0.00 85 1016.8
20260506110014 47 111 0.0 2.6 0.00 0.01 0.00 85 1016.6
20260506104512 47 136 0.0 0.0 0.00 0.01 0.00 84 1016.8
20260506103010 48 136 0.0 0.0 0.00 0.01 0.00 84 1016.8